STARLINK-1524, 46047

Orbit data source: Space-Track

STARLINK-1524, 46047 is a payload satellite owned by SpaceX/Seattle (US) in LEO that was launched on Fri, 07 Aug 2020 UTC via an FALCON 9 launch vehicle from the Air Force Eastern Test Range (AFETR). Payload-class satellites include a variety of spacecraft equipped with specific instruments for various scientific and technological missions. These include communications satellites like Starlink; space stations such as the ISS; scientific satellites like the Hubble; Earth observation satellites from companies like Planet Labs, Umbra, and HawkEye 360; GPS; miniature CubeSats for education and research; and military/defense satellites.

Loading next visibility...
Identifier
46047, 2020-055W
Orbit
LEO
Country
Flag of USUS
Related business
Manufacturer
SpaceX/Seattle
Mission
Operational Commercial Communications
Bus & Motor
STARLINK, Unknown motor
Mass
260 kg wet, ~248 kg dry
Launch date (UTC)
2020-08-07 (5 years ago)
Launch vehicle
FALCON 9
Launch site
Air Force Eastern Test Range (AFETR)
Object type
Payload
Rocket body
Debris
Shape & HBR
Box + 1 Pan, 10.1 m
Radar Cross Section
13.562 m², Large (>1 m²)

Expand to show TLE details & history
Last TLE update: 15 hours ago

TLE from 15 hours ago
0 STARLINK-1524
1 46047U 20055W   25291.55579784 -.00004105  00000-0 -25700-3 0  9991
2 46047  53.0531  34.6834 0001404  81.9779 278.1369 15.06375444287606
Epoch: 2025-10-18T13:20Z
TLE epoch observation values (Epoch: 2025-10-18T13:20:20.933Z)
Latitude
-0.00003°
Longitude
167.31103°
Altitude
548.028 km
Speed
7.589 km/s
True Right ascension
02h 18m 44s
True Declination
0° 00' 00"
Sunlit
Object was in full shadow at epoch
Visualization orbit readout
Latitude
Unknown
Longitude
Unknown
Altitude
Unknown
Speed
Unknown
Apparent Right ascension
Unknown
Apparent Declination
Unknown
Sunlit
N/A
Visualization observer readout
Local Sidereal Time
23:15:18
Azimuth
Unknown
Elevation
Unknown
Doppler factor
Unknown
Orbital elements
Apogee altitude
548.53 km
Perigee altitude
546.585 km
Semi-major axis
6,925.695 km
Eccentricity
0.00014
Inclination
53.0531°
RAAN
34.6834°
Arg. of periapsis
81.9779°
True anomaly
278.12097°
Mean anomaly
278.1369°
Eccentric anomaly
278.12894°
Mean motion
3.76572 °/min
Orbital period
95.6 mins
BSTAR
-0.000257
Loading maneuver chart data...
Computing Atmospheric mass density...
Loading historical data...
Loading historical data...
Loading historical data...
Loading historical data...
Loading historical data...
Loading historical data...
Loading historical data...

Documentation

Showing up to 5 results
|